FW0027 Weather Reports


Display with metric or nautical units.
time (UTC)temp
F
wind
direction
speed
MPH
gust
MPH
rain 1hr
in
rain 24hr
in
rain mn
in
humidity
%
barometer
mb
20260505080540 92 94 9.0 18.0 0.00 0.00 0.00 59 1009.6
20260505074503 93 90 9.0 15.0 0.00 0.00 0.00 57 1009.4
20260505074358 94 109 8.0 14.0 0.00 0.00 0.00 56 1009.4
20260505073332 94 119 9.0 17.0 0.00 0.00 0.00 56 1009.4
20260505073003 94 110 10.0 19.0 0.00 0.00 0.00 56 1009.4
20260505072330 95 61 8.0 19.0 0.00 0.00 0.00 56 1009.3
20260505071502 94 55 5.0 20.0 0.00 0.00 0.00 55 1009.5
20260505071330 95 111 7.0 19.0 0.00 0.00 0.00 55 1009.4
20260505070347 95 65 6.0 19.0 0.00 0.00 0.00 54 1009.6
20260505065321 94 113 8.0 19.0 0.00 0.00 0.00 55 1009.6
20260505064502 94 60 6.0 20.0 0.00 0.00 0.00 55 1009.8
20260505064325 94 102 8.0 15.0 0.00 0.00 0.00 55 1009.7
20260505062251 94 58 8.0 19.0 0.00 0.00 0.00 58 1009.8
20260505061605 93 86 8.0 15.0 0.00 0.00 0.00 58 1009.9
20260505060117 93 103 7.0 21.0 0.00 0.00 0.00 59 1010.0
20260505060003 92 86 6.0 15.0 0.00 0.00 0.00 59 1010.1
20260505055121 92 105 9.0 21.0 0.00 0.00 0.00 60 1010.3
20260505054604 93 116 10.0 22.0 0.00 0.00 0.00 58 1010.5
20260505054055 94 88 8.0 18.0 0.00 0.00 0.00 57 1010.4
20260505053107 94 121 10.0 19.0 0.00 0.00 0.00 57 1010.5
20260505051602 93 148 11.0 19.0 0.00 0.00 0.00 59 1010.7
20260505050931 94 103 9.0 20.0 0.00 0.00 0.00 58 1010.6
20260505041655 94 106 10.0 19.0 0.00 0.00 0.00 56 1011.2
20260505041502 93 102 8.0 20.0 0.00 0.00 0.00 57 1011.2
20260505040625 94 142 10.0 20.0 0.00 0.00 0.00 57 1011.3
20260505040108 93 108 10.0 21.0 0.00 0.00 0.00 57 1011.4
20260505035558 94 117 10.0 19.0 0.00 0.00 0.00 55 1011.4
20260505034602 93 123 8.0 15.0 0.00 0.00 0.00 57 1011.4
20260505034507 93 162 9.0 14.0 0.00 0.00 0.00 57 1011.5
20260505033607 93 99 9.0 18.0 0.00 0.00 0.00 57 1011.6
20260505033103 93 111 8.0 19.0 0.00 0.00 0.00 58 1011.7
20260505032545 93 131 9.0 19.0 0.00 0.00 0.00 59 1011.7
20260505031603 92 105 11.0 20.0 0.00 0.00 0.00 59 1011.9
20260505031529 92 119 10.0 19.0 0.00 0.00 0.00 59 1011.8
20260505030457 92 129 9.0 18.0 0.00 0.00 0.00 59 1011.9
20260505030003 92 107 9.0 19.0 0.00 0.00 0.00 59 1012.0
20260505025501 92 122 8.0 17.0 0.00 0.00 0.00 59 1012.0
20260505024603 92 120 8.0 16.0 0.00 0.00 0.00 60 1012.1
20260505024437 92 78 7.0 19.0 0.00 0.00 0.00 62 1011.9
20260505023003 91 150 9.0 18.0 0.00 0.00 0.00 61 1012.1
20260505022234 91 151 8.0 15.0 0.00 0.00 0.00 62 1012.1
20260505021506 91 128 9.0 16.0 0.00 0.00 0.00 61 1012.3
20260505021236 92 109 8.0 15.0 0.00 0.00 0.00 60 1012.4
20260505020240 92 116 7.0 18.0 0.00 0.00 0.00 59 1012.4
20260505015259 91 86 8.0 18.0 0.00 0.00 0.00 59 1012.5
20260505014502 90 111 9.0 19.0 0.00 0.00 0.00 61 1012.6
20260505014304 91 92 7.0 17.0 0.00 0.00 0.00 62 1012.6
20260505013105 90 109 8.0 14.0 0.00 0.00 0.00 65 1012.7
20260505012204 90 105 5.0 10.0 0.00 0.00 0.00 65 1012.7
20260505011608 89 105 6.0 11.0 0.00 0.00 0.00 65 1012.7
20260505011200 90 101 5.0 10.0 0.00 0.00 0.00 65 1012.6
20260505010203 90 92 4.0 8.0 0.00 0.00 0.00 64 1012.5
20260505010003 89 92 5.0 9.0 0.00 0.00 0.00 64 1012.6
20260505004602 89 91 4.0 9.0 0.00 0.00 0.00 62 1012.7
20260505004104 89 92 4.0 11.0 0.00 0.00 0.00 63 1012.6
20260505003125 89 91 5.0 11.0 0.00 0.00 0.00 62 1012.7
20260505003003 88 101 5.0 10.0 0.00 0.00 0.00 62 1012.7
20260505002135 88 107 4.0 9.0 0.00 0.00 0.00 62 1012.7
20260505001501 88 103 5.0 10.0 0.00 0.00 0.00 63 1012.7
20260505001136 88 109 4.0 9.0 0.00 0.00 0.00 63 1012.7
20260505000201 88 108 4.0 9.0 0.00 0.00 0.00 64 1012.7
20260505000139 87 108 4.0 10.0 0.00 0.00 0.00 63 1012.7
20260504235215 88 97 4.0 7.0 0.00 0.00 0.00 64 1012.6
20260504234504 88 94 6.0 8.0 0.00 0.00 0.00 63 1012.8
20260504234213 88 92 3.0 7.0 0.00 0.00 0.00 64 1012.8
20260504233224 87 103 1.0 6.0 0.00 0.00 0.00 66 1012.7
20260504233109 87 102 1.0 7.0 0.00 0.00 0.00 65 1012.8
20260504232209 87 103 2.0 6.0 0.00 0.00 0.00 68 1012.7
20260504231603 86 103 3.0 7.0 0.00 0.00 0.00 68 1012.7
20260504231153 86 103 2.0 6.0 0.00 0.00 0.00 68 1012.6
20260504230131 85 103 2.0 6.0 0.00 0.00 0.00 70 1012.4
20260504230011 85 103 4.0 7.0 0.00 0.00 0.00 70 1012.5
20260504225150 85 103 3.0 6.0 0.00 0.00 0.00 72 1012.4
20260504224611 84 103 4.0 7.0 0.00 0.00 0.00 73 1012.4
20260504224152 84 103 3.0 6.0 0.00 0.00 0.00 74 1012.3
20260504223005 82 103 4.0 7.0 0.00 0.00 0.00 77 1012.2
20260504222052 82 103 2.0 5.0 0.00 0.00 0.00 79 1012.2
20260504221504 81 103 1.0 6.0 0.00 0.00 0.00 80 1012.1
20260504221059 81 103 1.0 4.0 0.00 0.00 0.00 80 1012.0
20260504220123 81 103 1.0 4.0 0.00 0.00 0.00 79 1012.1
20260504215119 81 103 1.0 3.0 0.00 0.00 0.00 79 1011.9
20260504214504 81 103 2.0 3.0 0.00 0.00 0.00 79 1012.0
20260504213148 81 103 1.0 3.0 0.00 0.00 0.00 78 1011.9
20260504212941 81 103 0.0 3.0 0.00 0.00 0.00 78 1012.0
20260504211949 81 103 0.0 4.0 0.00 0.00 0.00 78 1011.8
20260504211607 81 103 1.0 3.0 0.00 0.00 0.00 78 1011.8
20260504210005 81 103 2.0 5.0 0.00 0.00 0.00 78 1011.7
20260504205840 82 103 1.0 4.0 0.00 0.00 0.00 78 1011.7
20260504204853 82 103 1.0 4.0 0.00 0.00 0.00 78 1011.6
20260504204604 81 103 1.0 5.0 0.00 0.00 0.00 78 1011.7
20260504203917 82 103 3.0 5.0 0.00 0.00 0.00 78 1011.6
20260504203008 81 103 2.0 5.0 0.00 0.00 0.00 77 1011.6
20260504202849 82 103 1.0 5.0 0.00 0.00 0.00 77 1011.5
20260504201849 82 103 1.0 5.0 0.00 0.00 0.00 77 1011.5
20260504201505 81 103 1.0 5.0 0.00 0.00 0.00 77 1011.4
20260504200840 82 103 1.0 4.0 0.00 0.00 0.00 77 1011.4
20260504195857 82 103 1.0 4.0 0.00 0.00 0.00 77 1011.3
20260504194911 82 103 1.0 4.0 0.00 0.00 0.00 76 1011.4
20260504194503 81 103 1.0 5.0 0.00 0.00 0.00 76 1011.4
20260504193907 82 103 2.0 4.0 0.00 0.00 0.00 76 1011.4
20260504193112 82 103 2.0 5.0 0.00 0.00 0.00 76 1011.4
20260504192835 82 103 1.0 4.0 0.00 0.00 0.00 76 1011.4
20260504191604 82 103 2.0 5.0 0.00 0.00 0.00 76 1011.4
20260504190702 82 103 1.0 4.0 0.00 0.00 0.00 77 1011.5
20260504190004 82 103 0.0 6.0 0.00 0.00 0.00 77 1011.5
20260504185721 82 103 2.0 5.0 0.00 0.00 0.00 77 1011.5
20260504184657 82 103 3.0 6.0 0.00 0.00 0.00 76 1011.5
20260504184609 82 103 4.0 7.0 0.00 0.00 0.00 76 1011.5
20260504183633 82 103 3.0 6.0 0.00 0.00 0.00 76 1011.5
20260504183002 82 103 4.0 6.0 0.00 0.00 0.00 76 1011.7
20260504182606 82 103 2.0 5.0 0.00 0.00 0.00 76 1011.7
20260504181541 83 103 4.0 8.0 0.00 0.00 0.00 76 1011.7
20260504181502 82 103 4.0 8.0 0.00 0.00 0.00 76 1011.7
20260504180524 82 102 3.0 8.0 0.00 0.00 0.00 75 1011.7
20260504180006 82 101 4.0 6.0 0.00 0.00 0.00 75 1011.7
20260504175526 83 101 3.0 6.0 0.00 0.00 0.00 75 1011.8
20260504174617 82 101 3.0 7.0 0.00 0.00 0.00 74 1012.0
20260504174510 83 101 3.0 7.0 0.00 0.00 0.00 74 1011.9
20260504173530 83 101 4.0 7.0 0.00 0.00 0.00 73 1012.0
20260504173002 82 101 4.0 7.0 0.00 0.00 0.00 73 1012.1
20260504171503 82 101 4.0 7.0 0.00 0.00 0.00 74 1012.2
20260504171401 83 101 3.0 6.0 0.00 0.00 0.00 74 1012.2
20260504170414 83 101 4.0 8.0 0.00 0.00 0.00 73 1012.1
20260504170105 83 101 4.0 7.0 0.00 0.00 0.00 73 1012.2
20260504160105 83 115 7.0 13.0 0.00 0.00 0.00 72 1012.7
20260504150827 84 113 7.0 17.0 0.00 0.00 0.00 71 1013.1
20260504140513 85 126 7.0 17.0 0.00 0.00 0.00 68 1012.6
20260504140112 84 130 10.0 18.0 0.00 0.00 0.00 68 1012.8
20260504130222 85 125 8.0 14.0 0.00 0.00 0.00 70 1012.3
20260504120156 86 108 7.0 13.0 0.00 0.00 0.00 69 1012.1
20260504100106 88 116 8.0 15.0 0.00 0.00 0.00 63 1010.8
20260504090124 90 113 8.0 16.0 0.00 0.00 0.00 63 1010.2
20260504081603 92 121 9.0 19.0 0.00 0.00 0.00 58 1010.4
20260504081545 93 114 8.0 18.0 0.00 0.00 0.00 58 1010.4